{"data":{"norad_id":55285,"intl_designator":"2023-010S","name":"STARLINK-5332","alt_names":[],"object_type":"PAYLOAD","status":"ACTIVE","operator":null,"country":"US","launch_date":"2023-01-19","launch_site_code":"AFWTR","launch_vehicle":null,"mission":null,"orbit_class":"UNKNOWN","rcs_meters":null,"size_class":null,"mass_kg":null,"dimensions":null,"purposes":["comms"],"wikipedia_slug":null,"has_3d_model":false,"image_url":null,"decayed_at":null,"tle_current":{"epoch":"2026-09-20T08:38:14.095104Z","epoch_age_seconds":104877,"freshness":"FRESH","line1":"1 55285U 23010S   26263.35988536  .00002208  00000+0  19286-3 0  9997","line2":"2 55285  69.9985 233.5407 0002506 263.1479  96.9395 14.98319431203809","mean_motion":14.98319431,"eccentricity":0.0002506,"inclination_deg":69.9985,"raan_deg":233.5407,"arg_perigee_deg":263.1479,"mean_anomaly_deg":96.9395,"bstar":0.00019286,"rev_number":20380,"period_min":96.107677055147,"perigee_km":570.34684836813,"apogee_km":573.83030142627,"semimajor_km":6950.2255748972,"source":"CELESTRAK","updated_at":"2026-09-21T09:00:33.167662Z"}}}